Total_Precipitation_Accumulation
0.02 0.08 0.18 0.17 0.17 0.15 0.15 0.16 0.16 0.17 0.18 0.19 0.17 0.18 0.21 0.20 0.17 0.13 0.15 0.17 0.20 0.26 0.32 0.32 0.36 0.40 0.38 0.36 0.31 0.16 0.07 0.06 0.05 0.05 0.05 0.07 0.10 0.10 0.09 0.10 0.10 0.11 0.14
0.03 0.07 0.16 0.17 0.19 0.17 0.18 0.18 0.15 0.14 0.17 0.19 0.20 0.22 0.25 0.22 0.17 0.16 0.17 0.18 0.22 0.30 0.32 0.31 0.26 0.23 0.22 0.21 0.15 0.07 0.03 0.02 0.01 0.01 0.01 0.02 0.05 0.08 0.08 0.09 0.09 0.12 0.14
0.04 0.08 0.16 0.19 0.21 0.20 0.18 0.16 0.13 0.13 0.16 0.19 0.23 0.26 0.26 0.22 0.21 0.20 0.22 0.21 0.26 0.29 0.28 0.22 0.18 0.11 0.08 0.07 0.05 0.03 0.02 0.01 0.00 0.00 0.01 0.02 0.04 0.07 0.08 0.08 0.10 0.11 0.11
0.04 0.08 0.15 0.20 0.23 0.24 0.18 0.15 0.14 0.15 0.18 0.21 0.24 0.28 0.26 0.23 0.23 0.21 0.21 0.21 0.22 0.21 0.17 0.12 0.08 0.05 0.04 0.03 0.03 0.02 0.01 0.00 0.00 0.00 0.01 0.02 0.03 0.07 0.10 0.10 0.11 0.10 0.10
0.06 0.09 0.18 0.24 0.28 0.28 0.25 0.21 0.19 0.19 0.22 0.23 0.25 0.27 0.27 0.25 0.23 0.21 0.19 0.18 0.16 0.11 0.08 0.08 0.04 0.03 0.02 0.02 0.02 0.01 0.01 0.00 0.00 0.01 0.02 0.03 0.04 0.10 0.11 0.11 0.11 0.12 0.13
0.11 0.14 0.20 0.23 0.30 0.33 0.32 0.30 0.29 0.26 0.26 0.28 0.28 0.28 0.29 0.28 0.26 0.27 0.23 0.13 0.09 0.07 0.05 0.05 0.04 0.03 0.01 0.01 0.01 0.01 0.01 0.01 0.00 0.00 0.02 0.04 0.07 0.14 0.14 0.14 0.15 0.16 0.19
0.19 0.23 0.26 0.28 0.34 0.36 0.35 0.34 0.34 0.34 0.34 0.35 0.34 0.34 0.35 0.33 0.29 0.27 0.23 0.12 0.07 0.07 0.06 0.05 0.03 0.02 0.01 0.01 0.01 0.01 0.01 0.00 0.00 0.00 0.02 0.04 0.08 0.15 0.15 0.13 0.14 0.17 0.19
0.31 0.37 0.38 0.39 0.42 0.40 0.39 0.38 0.37 0.41 0.43 0.43 0.43 0.42 0.43 0.41 0.36 0.28 0.23 0.13 0.09 0.07 0.06 0.07 0.05 0.03 0.02 0.01 0.01 0.01 0.01 0.00 0.00 0.01 0.02 0.03 0.05 0.11 0.12 0.10 0.09 0.10 0.11
0.53 0.57 0.59 0.54 0.49 0.45 0.44 0.42 0.41 0.44 0.48 0.49 0.47 0.44 0.45 0.44 0.38 0.29 0.21 0.14 0.11 0.10 0.08 0.07 0.06 0.04 0.03 0.02 0.02 0.01 0.01 0.00 0.00 0.01 0.01 0.02 0.06 0.10 0.09 0.08 0.08 0.07 0.07
0.82 0.79 0.78 0.73 0.68 0.60 0.52 0.45 0.44 0.45 0.48 0.50 0.44 0.36 0.32 0.34 0.34 0.30 0.19 0.16 0.12 0.12 0.11 0.08 0.07 0.06 0.04 0.02 0.02 0.01 0.01 0.00 0.00 0.00 0.01 0.02 0.06 0.08 0.08 0.08 0.07 0.07 0.07
1.13 1.01 0.91 0.84 0.81 0.73 0.66 0.53 0.46 0.47 0.50 0.47 0.40 0.33 0.29 0.32 0.31 0.27 0.16 0.12 0.12 0.11 0.11 0.10 0.08 0.06 0.04 0.02 0.01 0.01 0.01 0.00 0.00 0.00 0.01 0.02 0.04 0.06 0.06 0.06 0.06 0.07 0.08
1.24 1.14 1.05 0.93 0.87 0.81 0.72 0.61 0.57 0.50 0.47 0.44 0.34 0.29 0.28 0.26 0.26 0.21 0.18 0.12 0.12 0.11 0.10 0.10 0.10 0.07 0.04 0.01 0.01 0.01 0.01 0.00 0.00 0.00 0.01 0.01 0.02 0.04 0.04 0.05 0.06 0.06 0.06
1.44 1.36 1.22 1.10 1.01 0.93 0.83 0.66 0.60 0.55 0.50 0.45 0.37 0.32 0.29 0.29 0.28 0.26 0.23 0.18 0.16 0.12 0.10 0.08 0.08 0.04 0.02 0.01 0.01 0.01 0.00 0.01 0.00 0.00 0.00 0.00 0.01 0.02 0.03 0.04 0.05 0.05 0.06
1.54 1.46 1.39 1.30 1.16 1.05 0.90 0.76 0.65 0.59 0.53 0.47 0.41 0.39 0.37 0.30 0.25 0.22 0.20 0.16 0.16 0.13 0.11 0.08 0.05 0.04 0.04 0.03 0.02 0.02 0.01 0.01 0.01 0.00 0.00 0.00 0.01 0.01 0.02 0.03 0.04 0.05 0.06
1.41 1.44 1.36 1.31 1.21 1.11 0.99 0.85 0.68 0.63 0.55 0.51 0.50 0.46 0.41 0.33 0.26 0.23 0.24 0.22 0.19 0.16 0.13 0.10 0.07 0.06 0.05 0.04 0.03 0.02 0.02 0.01 0.01 0.00 0.00 0.00 0.00 0.01 0.01 0.03 0.04 0.06 0.09
1.31 1.37 1.38 1.32 1.21 1.15 1.03 0.89 0.75 0.68 0.64 0.63 0.57 0.49 0.45 0.39 0.32 0.31 0.27 0.24 0.20 0.18 0.16 0.13 0.10 0.09 0.07 0.06 0.05 0.03 0.03 0.02 0.02 0.02 0.01 0.01 0.00 0.00 0.01 0.02 0.04 0.09 0.15
1.30 1.39 1.37 1.35 1.32 1.15 1.05 0.95 0.85 0.78 0.71 0.67 0.62 0.56 0.53 0.45 0.39 0.36 0.32 0.27 0.22 0.22 0.21 0.20 0.18 0.15 0.11 0.08 0.06 0.05 0.04 0.04 0.03 0.03 0.03 0.02 0.01 0.01 0.01 0.02 0.05 0.10 0.16
1.36 1.45 1.44 1.35 1.31 1.20 1.07 1.02 0.92 0.83 0.78 0.70 0.70 0.67 0.62 0.57 0.53 0.48 0.37 0.28 0.31 0.33 0.31 0.28 0.24 0.20 0.15 0.12 0.10 0.08 0.07 0.05 0.04 0.04 0.03 0.03 0.02 0.02 0.01 0.02 0.04 0.08 0.13
1.40 1.50 1.53 1.49 1.41 1.39 1.34 1.22 1.12 1.00 0.85 0.81 0.78 0.73 0.64 0.63 0.62 0.58 0.46 0.39 0.43 0.41 0.34 0.30 0.25 0.24 0.21 0.19 0.17 0.15 0.12 0.09 0.07 0.06 0.05 0.04 0.04 0.03 0.03 0.03 0.04 0.05 0.08
1.56 1.66 1.66 1.64 1.60 1.69 1.70 1.57 1.36 1.19 0.99 0.88 0.84 0.76 0.72 0.69 0.66 0.63 0.56 0.53 0.56 0.52 0.43 0.38 0.33 0.31 0.28 0.29 0.27 0.19 0.15 0.14 0.11 0.09 0.08 0.07 0.07 0.07 0.07 0.06 0.06 0.05 0.05
1.65 1.74 1.75 1.71 1.71 1.74 1.72 1.59 1.39 1.20 1.13 1.02 0.95 0.90 0.87 0.85 0.87 0.79 0.65 0.64 0.66 0.60 0.55 0.53 0.51 0.48 0.42 0.41 0.36 0.25 0.18 0.15 0.12 0.09 0.08 0.08 0.08 0.08 0.08 0.08 0.08 0.06 0.04
1.53 1.77 1.85 1.83 1.85 1.72 1.59 1.63 1.60 1.53 1.39 1.28 1.23 1.13 1.00 0.96 0.97 0.96 0.92 0.87 0.83 0.76 0.70 0.68 0.67 0.61 0.56 0.56 0.51 0.46 0.30 0.19 0.13 0.10 0.10 0.09 0.09 0.09 0.08 0.08 0.08 0.07 0.06
1.31 1.62 1.80 1.91 1.94 1.93 1.87 1.99 1.94 1.82 1.58 1.32 1.15 1.15 1.14 1.11 1.09 1.07 1.07 1.08 1.07 1.02 0.91 0.87 0.86 0.80 0.74 0.71 0.68 0.68 0.47 0.27 0.18 0.14 0.12 0.11 0.11 0.10 0.10 0.10 0.09 0.09 0.08
1.10 1.34 1.54 1.81 2.00 2.07 2.13 2.08 1.96 1.74 1.51 1.27 1.24 1.34 1.37 1.31 1.23 1.18 1.17 1.17 1.17 1.11 1.03 1.07 1.10 1.02 0.98 0.90 0.85 0.75 0.61 0.43 0.36 0.24 0.15 0.14 0.14 0.12 0.12 0.13 0.12 0.11 0.10
1.01 1.20 1.33 1.55 1.86 1.96 1.91 1.89 1.96 1.83 1.61 1.49 1.46 1.43 1.41 1.34 1.27 1.21 1.19 1.20 1.18 1.15 1.08 1.10 1.15 1.16 1.13 1.06 0.96 0.89 0.85 0.67 0.49 0.42 0.28 0.18 0.18 0.17 0.17 0.17 0.15 0.14 0.14
0.85 1.05 1.23 1.32 1.53 1.68 1.67 1.72 1.79 1.71 1.64 1.54 1.41 1.36 1.36 1.32 1.24 1.18 1.15 1.17 1.19 1.18 1.13 1.13 1.18 1.22 1.22 1.14 1.03 0.92 0.88 0.79 0.64 0.60 0.51 0.35 0.30 0.25 0.25 0.25 0.24 0.23 0.23